CW5039 Weather Reports


Display with metric or nautical units.
time (UTC)temp
F
wind
direction
speed
MPH
gust
MPH
rain 1hr
in
rain 24hr
in
rain mn
in
humidity
%
barometer
mb
20260905094904 50 284 2.0 3.0 0.00 0.00 0.00 86 1018.0
20260905093404 51 333 1.0 5.0 0.00 0.00 0.00 86 1017.5
20260905091405 50 327 9.0 12.0 0.00 0.00 0.00 86 1017.3
20260905090904 50 334 9.0 12.0 0.00 0.00 0.00 87 1017.2
20260905090404 50 334 10.0 12.0 0.00 0.00 0.00 87 1017.2
20260905085905 50 332 10.0 12.0 0.00 0.00 0.00 87 1017.3
20260905085404 50 332 9.0 12.0 0.00 0.00 0.00 86 1017.6
20260905083904 51 333 6.0 7.0 0.00 0.00 0.00 85 1017.9
20260905082905 51 276 4.0 5.0 0.00 0.00 0.00 86 1017.8
20260905082404 51 263 3.0 6.0 0.00 0.00 0.00 85 1017.8
20260905081905 50 286 3.0 3.0 0.00 0.00 0.00 85 1017.8
20260905080905 50 286 3.0 6.0 0.00 0.00 0.00 84 1017.7
20260905080405 50 290 2.0 3.0 0.00 0.00 0.00 83 1017.5
20260905075905 50 290 2.0 3.0 0.00 0.00 0.00 83 1017.4
20260905075404 51 290 0.0 3.0 0.00 0.00 0.00 84 1017.3
20260905073904 51 286 2.0 3.0 0.00 0.00 0.00 83 1017.2
20260905072904 50 286 3.0 3.0 0.00 0.00 0.00 83 1017.1
20260905071904 50 286 5.0 6.0 0.00 0.00 0.00 83 1017.1
20260905071405 50 285 6.0 7.0 0.00 0.00 0.00 84 1017.0
20260905070405 50 278 7.0 8.0 0.00 0.00 0.00 81 1016.9
20260905065905 51 279 6.0 7.0 0.00 0.00 0.00 81 1016.8
20260905063404 53 281 6.0 7.0 0.00 0.00 0.00 78 1016.9
20260905054404 57 266 12.0 15.0 0.00 0.00 0.00 71 1016.8
20260905052404 58 276 12.0 14.0 0.00 0.00 0.00 71 1016.7
20260905050904 59 264 12.0 15.0 0.00 0.00 0.00 69 1016.9
20260905045904 59 254 13.0 17.0 0.00 0.00 0.00 69 1016.9
20260905045405 59 264 14.0 17.0 0.00 0.00 0.00 69 1016.9
20260905044404 60 261 17.0 21.0 0.00 0.00 0.00 70 1017.0
20260905043904 60 259 14.0 18.0 0.00 0.00 0.00 71 1017.1
20260905043404 60 244 13.0 15.0 0.00 0.00 0.00 69 1017.1
20260905041404 61 247 14.0 21.0 0.00 0.00 0.00 68 1017.1
20260905040405 61 262 17.0 23.0 0.00 0.00 0.00 67 1017.1
20260905035905 61 250 14.0 20.0 0.00 0.01 0.00 67 1017.2
20260905035404 61 254 14.0 21.0 0.00 0.01 0.00 69 1017.1
20260905034904 60 262 12.0 20.0 0.00 0.01 0.00 71 1017.1
20260905034404 61 253 13.0 18.0 0.00 0.01 0.00 69 1017.1
20260905032404 62 245 16.0 21.0 0.00 0.02 0.00 69 1017.2
20260905024904 63 251 16.0 20.0 0.00 0.03 0.00 70 1017.2
20260905024405 62 255 16.0 22.0 0.00 0.03 0.00 69 1017.3
20260905023904 62 251 16.0 21.0 0.00 0.03 0.00 67 1017.4
20260905023404 62 264 17.0 20.0 0.00 0.03 0.00 69 1017.3
20260905022904 62 268 15.0 21.0 0.00 0.03 0.00 68 1017.4
20260905022405 62 262 18.0 23.0 0.00 0.03 0.00 68 1017.5
20260905021905 62 262 18.0 21.0 0.00 0.03 0.00 68 1017.6
20260905020904 62 255 16.0 20.0 0.00 0.03 0.00 71 1017.6
20260905020404 62 269 17.0 22.0 0.00 0.03 0.00 70 1017.6
20260905015905 62 249 14.0 17.0 0.00 0.03 0.00 70 1017.6
20260905014904 61 275 17.0 20.0 0.00 0.03 0.00 70 1017.7
20260905012405 62 272 17.0 21.0 0.00 0.03 0.00 67 1017.8
20260905005904 61 268 17.0 22.0 0.00 0.04 0.00 68 1018.0
20260905005404 61 260 17.0 21.0 0.00 0.04 0.00 66 1018.1
20260905004405 64 267 17.0 21.0 0.00 0.04 0.00 65 1018.2
20260905003404 63 260 18.0 23.0 0.00 0.05 0.00 63 1018.2
20260905001404 63 262 19.0 22.0 0.00 0.07 0.00 62 1018.4
20260905000905 63 267 19.0 24.0 0.00 0.07 0.00 62 1018.4
20260905000404 63 262 18.0 22.0 0.00 0.07 0.00 64 1018.3
20260904235904 63 249 14.0 18.0 0.00 0.07 0.00 64 1018.4
20260904235405 63 253 15.0 20.0 0.00 0.07 0.00 64 1018.5
20260904232904 62 249 15.0 20.0 0.00 0.07 0.00 64 1018.6
20260904231904 62 259 13.0 21.0 0.00 0.07 0.00 66 1018.6
20260904231404 62 264 16.0 21.0 0.00 0.07 0.00 66 1018.6
20260904230904 62 258 13.0 18.0 0.00 0.07 0.00 66 1018.6
20260904225904 62 254 13.0 17.0 0.00 0.07 0.00 67 1018.7
20260904224904 62 254 15.0 20.0 0.00 0.07 0.00 68 1018.7
20260904224404 62 259 13.0 18.0 0.00 0.07 0.00 69 1018.8
20260904223904 61 261 17.0 20.0 0.00 0.07 0.00 67 1018.8
20260904221404 61 262 14.0 17.0 0.00 0.07 0.00 71 1018.8
20260904220904 61 268 13.0 17.0 0.00 0.07 0.00 71 1018.8
20260904220404 61 261 10.0 12.0 0.00 0.07 0.00 72 1018.8
20260904214904 60 278 12.0 13.0 0.00 0.07 0.00 74 1018.9
20260904214404 60 270 12.0 14.0 0.00 0.07 0.00 74 1019.0
20260904213904 60 264 13.0 15.0 0.00 0.07 0.00 77 1018.9
20260904211905 58 319 6.0 9.0 0.00 0.07 0.00 81 1019.0
20260904205904 56 355 6.0 7.0 0.00 0.07 0.00 83 1019.2
20260904204905 56 350 5.0 7.0 0.00 0.07 0.00 83 1019.2
20260904204405 56 350 5.0 7.0 0.00 0.07 0.00 85 1019.0
20260904203405 55 350 5.0 7.0 0.00 0.07 0.00 86 1018.9
20260904202905 54 5 5.0 5.0 0.00 0.07 0.00 88 1018.9
20260904202405 53 21 0.0 0.0 0.00 0.07 0.00 88 1018.8
20260904201905 53 21 1.0 3.0 0.00 0.07 0.00 89 1018.7
20260904201405 52 21 3.0 3.0 0.00 0.07 0.00 89 1018.7
20260904200405 52 23 5.0 5.0 0.00 0.07 0.00 91 1018.7
20260904195905 51 25 5.0 5.0 0.00 0.07 0.00 91 1018.6
20260904194905 49 25 3.0 6.0 0.00 0.07 0.00 91 1018.5
20260904194405 48 26 4.0 5.0 0.00 0.07 0.00 91 1018.5
20260904193905 48 26 5.0 6.0 0.00 0.07 0.00 91 1018.5
20260904193405 47 27 5.0 6.0 0.00 0.07 0.00 91 1018.5
20260904191905 45 326 3.0 3.0 0.00 0.07 0.00 90 1018.2
20260904191405 44 326 2.0 3.0 0.00 0.07 0.00 90 1018.1
20260904190905 45 326 2.0 3.0 0.00 0.07 0.00 90 1018.0
20260904190405 45 326 1.0 2.0 0.00 0.07 0.00 90 1017.9
20260904185906 45 326 2.0 3.0 0.00 0.07 0.00 90 1017.9
20260904185406 45 326 3.0 5.0 0.00 0.07 0.00 89 1017.8
20260904184906 46 317 2.0 3.0 0.00 0.07 0.00 90 1017.7
20260904184405 46 317 3.0 3.0 0.00 0.07 0.00 90 1017.7
20260904183405 46 317 3.0 3.0 0.00 0.07 0.00 90 1017.5
20260904182905 46 317 4.0 5.0 0.00 0.07 0.00 90 1017.5
20260904182405 46 317 3.0 3.0 0.00 0.07 0.00 90 1017.5
20260904181405 46 317 2.0 3.0 0.00 0.07 0.00 89 1017.4
20260904180905 46 317 2.0 3.0 0.00 0.07 0.00 89 1017.4
20260904175905 46 317 5.0 5.0 0.00 0.07 0.00 88 1017.2
20260904175404 46 317 3.0 3.0 0.00 0.07 0.00 89 1017.1
20260904174405 47 317 3.0 5.0 0.00 0.07 0.00 89 1017.0
20260904172905 47 308 4.0 5.0 0.00 0.07 0.00 89 1016.8
20260904171905 47 309 2.0 3.0 0.00 0.07 0.00 89 1016.7
20260904171405 47 306 5.0 5.0 0.00 0.07 0.00 88 1016.7
20260904165905 47 290 3.0 5.0 0.00 0.07 0.00 88 1016.6
20260904164905 47 279 2.0 3.0 0.00 0.07 0.00 87 1016.6
20260904162905 49 279 0.0 0.0 0.00 0.07 0.00 88 1016.2
20260904161906 49 278 0.0 0.0 0.00 0.07 0.00 88 1016.1
20260904161405 48 278 0.0 0.0 0.00 0.07 0.00 89 1016.0
20260904160905 47 278 0.0 0.0 0.00 0.07 0.00 87 1015.9
20260904155905 48 278 0.0 0.0 0.00 0.07 0.00 87 1015.7
20260904155405 48 278 0.0 0.0 0.00 0.07 0.00 86 1015.6
20260904154905 48 278 0.0 3.0 0.00 0.07 0.00 86 1015.5
20260904153405 49 0 0.0 1.0 0.00 0.07 0.00 85 1015.5
20260904152905 49 0 0.0 3.0 0.00 0.07 0.00 85 1015.4
20260904151905 49 0 2.0 3.0 0.00 0.07 0.00 86 1015.2
20260904142405 53 259 6.0 10.0 0.00 0.07 0.00 81 1015.6
20260904141905 53 262 6.0 15.0 0.00 0.07 0.00 81 1015.5
20260904140405 54 251 13.0 17.0 0.00 0.07 0.00 81 1015.2
20260904134905 54 242 16.0 24.0 0.00 0.07 0.00 82 1015.1
20260904133405 55 241 17.0 22.0 0.00 0.07 0.00 81 1015.3
20260904130905 54 235 14.0 20.0 0.00 0.07 0.00 84 1015.1
20260904125405 53 246 11.0 16.0 0.00 0.07 0.00 86 1014.9
20260904124906 53 249 12.0 13.0 0.00 0.07 0.00 86 1014.9
20260904124405 53 244 9.0 12.0 0.00 0.07 0.00 85 1014.8
20260904120404 53 275 10.0 12.0 0.00 0.07 0.00 84 1014.5
20260904114905 53 266 10.0 13.0 0.00 0.07 0.07 84 1014.4
20260904113905 53 267 10.0 13.0 0.00 0.07 0.07 84 1014.4
20260904113404 53 264 11.0 14.0 0.00 0.07 0.07 84 1014.4
20260904110405 52 265 6.0 10.0 0.00 0.07 0.07 86 1014.5
20260904105905 51 273 6.0 7.0 0.00 0.07 0.07 86 1014.5
20260904104905 51 313 3.0 5.0 0.00 0.07 0.07 86 1014.5
20260904104405 51 313 4.0 7.0 0.00 0.07 0.07 86 1014.5
20260904103904 51 301 5.0 6.0 0.00 0.07 0.07 86 1014.5
20260904102904 52 290 3.0 6.0 0.00 0.07 0.07 86 1014.6